Location: Samoth
(37.3328°N, 88.7876°W)
Time: 01:27:04
(UTC+00:00)

BlueWalker 3 - Pass Details

Date: 07 December 2022
Orbit: 499 x 517 km, 53.2° (Epoch: 06 February)

Event Time Altitude Azimuth Distance (km) Brightness Sun altitude
Rises 00:25:49 0° 322° (NW) 2,622 5.9 -21.0°
Reaches altitude 10° 00:28:30 10° 340° (NNW) 1,729 4.7 -21.5°
Enters shadow 00:29:28 14° 352° (N) 1,473 4.2 -21.7°
